Bow Valley, Alberta

6:43 AM MDT on March 24, 2017 (GMT -0600)
Bow Valley

Weather History for CWXA - February, 2013

Change the Weather History Date:

Wednesday, February 13, 2013

  Actual Average Record
Temperature  
Mean Temperature 26 °F -  
Max Temperature 41 °F - - ()
Min Temperature 12 °F - - ()
Degree Days  
Heating Degree Days 38    
Moisture  
Dew Point 11 °F    
Average Humidity 41    
Maximum Humidity 73    
Minimum Humidity 13    
Precipitation  
Precipitation 0.00 in - - ()
Sea Level Pressure  
Sea Level Pressure 29.95 in    
Wind  
Wind Speed 9 mph ()    
Max Wind Speed 17 mph    
Max Gust Speed 30 mph    
T = Trace of Precipitation, MM = Missing Value Source: Averaged Metar Reports

Daily Weather History Graph

Daily Weather History Graph

Search for Another Location

Airport or City:

Trip Planner

Search our weather history database for the weather conditions in past years. The results will help you decide how hot, cold, wet, or windy it might be!

Date:

Astronomy

Feb. 13, 2013 Rise Set
Actual Time 7:56 AM MST 5:53 PM MST
Civil Twilight 7:21 AM MST 6:27 PM MST
Nautical Twilight 6:43 AM MST 7:06 PM MST
Astronomical Twilight 6:04 AM MST 7:45 PM MST
Moon 8:56 AM MST (2/13) 10:35 PM MST (2/13)
Length of Visible Light 11h 06m
Length of Day
9h 57m
Waxing Crescent, 14% of the Moon is Illuminated
Feb 13
Waxing Crescent
Feb 17
First Quarter
Feb 25
Full
Mar 4
Last Quarter
Mar 11
New

Hourly Weather History & Observations

Time (MST) Temp. Windchill Dew Point Humidity Pressure Visibility Wind Dir Wind Speed Gust Speed Precip Events Conditions
12:00 AM 36.5 °F 30.3 °F 18.5 °F 48% 29.72 in - WSW 8.1 mph - N/A   Unknown
1:00 AM 36.9 °F 30.1 °F 17.6 °F 46% 29.72 in - West 9.2 mph - N/A   Unknown
2:00 AM 37.8 °F 29.4 °F 13.5 °F 37% 29.72 in - West 13.8 mph 21.9 mph N/A   Unknown
3:00 AM 37.4 °F 28.9 °F 14.5 °F 39% 29.73 in - West 13.8 mph 23.0 mph N/A   Unknown
4:00 AM 36.1 °F 26.2 °F 15.4 °F 43% 29.75 in - West 17.3 mph 29.9 mph N/A   Unknown
5:00 AM 36 °F - 15 °F 28% 29.76 in - West 17.3 mph - -  
5:00 AM 36.0 °F 26.0 °F 14.7 °F 42% 29.76 in - West 17.3 mph 25.3 mph N/A   Unknown
6:00 AM 34.2 °F 26.8 °F 16.3 °F 48% 29.82 in - West 9.2 mph - N/A   Unknown
7:00 AM 31.5 °F 22.9 °F 20.3 °F 63% 29.84 in - WSW 10.4 mph 17.3 mph N/A   Unknown
8:00 AM 31.8 °F 21.8 °F 20.8 °F 64% 29.85 in - WSW 13.8 mph 24.2 mph N/A   Unknown
9:00 AM 33.6 °F 24.6 °F 18.9 °F 55% 29.88 in - West 12.7 mph 21.9 mph N/A   Unknown
10:00 AM 35.8 °F 26.9 °F 15.1 °F 43% 29.91 in - West 13.8 mph 23.0 mph N/A   Unknown
11:00 AM 38 °F - 9 °F 17% 29.92 in - West 11.5 mph - -  
11:00 AM 38.3 °F 30.9 °F 9.1 °F 30% 29.92 in - West 11.5 mph 19.6 mph N/A   Unknown
12:00 PM 38.1 °F 31.2 °F 7.7 °F 28% 29.94 in - WSW 10.4 mph 19.6 mph N/A   Unknown
1:00 PM 39.2 °F 31.6 °F 4.6 °F 24% 29.94 in - West 12.7 mph 23.0 mph N/A   Unknown
2:00 PM 40.8 °F 34.5 °F 4.1 °F 22% 29.94 in - West 10.4 mph 19.6 mph N/A   Unknown
3:00 PM 37.9 °F 32.1 °F 1.0 °F 21% 29.98 in - West 8.1 mph - N/A   Unknown
4:00 PM 36.7 °F 29.9 °F 4.3 °F 26% 30.01 in - WSW 9.2 mph - N/A   Unknown
5:00 PM 35 °F - 3 °F 13% 30.05 in - West 8.1 mph - -  
5:00 PM 35.1 °F 28.6 °F 2.7 °F 26% 30.05 in - West 8.1 mph - N/A   Unknown
6:00 PM 34.2 °F 27.5 °F 4.5 °F 29% 30.09 in - WNW 8.1 mph - N/A   Unknown
7:00 PM 27.1 °F 19.7 °F 9.1 °F 47% 30.14 in - East 6.9 mph - N/A   Unknown
8:00 PM 22.8 °F - 9.0 °F 55% 30.19 in - NW 1.2 mph - N/A   Unknown
9:00 PM 21.2 °F - 9.9 °F 62% 30.21 in - NNW 1.2 mph - N/A   Unknown
10:00 PM 18.1 °F - 8.8 °F 67% 30.23 in - West 1.2 mph - N/A   Unknown
11:00 PM 12 °F - 5 °F 62% 30.27 in - SSW 1.2 mph - -  
11:00 PM 12.0 °F - 5.0 °F 73% 30.27 in - SSW 1.2 mph - N/A   Unknown